QPF
0.01 0.00 0.00 0.00 0.00 0.00 0.00 0.00 0.00 0.00 0.00 0.00 0.00 0.00 0.00 0.00 0.00 0.00 0.00 0.00 0.00 0.00 0.00 0.00 0.00 0.00 0.00 0.00 0.00 0.00 0.00 0.00 0.00 0.00 0.00 0.00 0.00 0.00 0.00 0.00 0.00 0.00 0.00
0.00 0.00 0.00 0.00 0.00 0.00 0.00 0.00 0.00 0.00 0.00 0.00 0.00 0.00 0.00 0.00 0.00 0.00 0.00 0.00 0.00 0.00 0.00 0.00 0.00 0.00 0.00 0.00 0.00 0.00 0.00 0.00 0.00 0.00 0.00 0.00 0.00 0.00 0.00 0.00 0.00 0.00 0.00
0.00 0.00 0.00 0.00 0.00 0.00 0.00 0.00 0.00 0.00 0.00 0.00 0.00 0.00 0.00 0.00 0.00 0.00 0.00 0.00 0.00 0.00 0.00 0.00 0.00 0.00 0.00 0.00 0.00 0.00 0.00 0.00 0.00 0.00 0.00 0.00 0.00 0.00 0.00 0.00 0.00 0.00 0.00
0.00 0.00 0.00 0.00 0.00 0.00 0.00 0.00 0.00 0.00 0.00 0.00 0.00 0.00 0.00 0.00 0.00 0.00 0.00 0.00 0.00 0.00 0.00 0.00 0.00 0.00 0.00 0.00 0.00 0.00 0.00 0.00 0.00 0.00 0.00 0.00 0.00 0.00 0.00 0.00 0.00 0.00 0.00
0.00 0.00 0.00 0.00 0.00 0.00 0.00 0.00 0.00 0.00 0.00 0.00 0.00 0.00 0.00 0.00 0.00 0.00 0.00 0.00 0.00 0.00 0.00 0.00 0.00 0.00 0.00 0.00 0.00 0.00 0.00 0.00 0.00 0.00 0.00 0.00 0.00 0.00 0.00 0.00 0.00 0.00 0.00
0.00 0.00 0.00 0.00 0.00 0.00 0.00 0.00 0.00 0.00 0.00 0.00 0.00 0.00 0.00 0.00 0.00 0.00 0.00 0.00 0.00 0.00 0.00 0.00 0.00 0.00 0.00 0.00 0.00 0.00 0.00 0.00 0.00 0.00 0.00 0.00 0.00 0.00 0.00 0.00 0.00 0.00 0.00
0.00 0.00 0.00 0.00 0.00 0.00 0.00 0.00 0.00 0.00 0.00 0.00 0.00 0.00 0.00 0.00 0.00 0.00 0.00 0.00 0.00 0.00 0.00 0.00 0.00 0.00 0.00 0.00 0.00 0.00 0.00 0.00 0.00 0.00 0.00 0.00 0.00 0.00 0.00 0.00 0.00 0.00 0.00
0.00 0.00 0.00 0.00 0.00 0.00 0.00 0.00 0.00 0.00 0.00 0.00 0.00 0.00 0.00 0.00 0.00 0.00 0.00 0.00 0.00 0.00 0.00 0.00 0.00 0.00 0.00 0.00 0.00 0.00 0.00 0.00 0.00 0.00 0.00 0.00 0.00 0.00 0.00 0.00 0.00 0.00 0.00
0.00 0.00 0.00 0.00 0.00 0.00 0.00 0.00 0.00 0.00 0.00 0.00 0.00 0.00 0.00 0.00 0.00 0.00 0.00 0.00 0.00 0.00 0.00 0.00 0.00 0.00 0.00 0.00 0.00 0.00 0.00 0.00 0.00 0.00 0.00 0.00 0.00 0.00 0.00 0.00 0.00 0.00 0.00
0.00 0.00 0.00 0.00 0.00 0.00 0.00 0.00 0.00 0.00 0.00 0.00 0.00 0.00 0.00 0.00 0.00 0.00 0.00 0.00 0.00 0.00 0.00 0.00 0.00 0.00 0.00 0.00 0.00 0.00 0.00 0.00 0.00 0.00 0.00 0.00 0.00 0.00 0.01 0.01 0.00 0.00 0.00
0.00 0.00 0.00 0.00 0.00 0.00 0.00 0.00 0.00 0.00 0.00 0.00 0.00 0.00 0.00 0.00 0.00 0.00 0.00 0.00 0.00 0.00 0.00 0.00 0.00 0.00 0.00 0.00 0.00 0.00 0.00 0.00 0.00 0.00 0.00 0.00 0.00 0.00 0.01 0.02 0.02 0.00 0.00
0.00 0.00 0.00 0.00 0.00 0.00 0.00 0.00 0.00 0.00 0.00 0.00 0.00 0.00 0.00 0.00 0.00 0.00 0.00 0.00 0.00 0.00 0.00 0.00 0.00 0.00 0.00 0.00 0.00 0.00 0.00 0.00 0.00 0.00 0.00 0.00 0.00 0.00 0.00 0.01 0.01 0.01 0.00
0.00 0.00 0.00 0.00 0.00 0.00 0.00 0.00 0.00 0.00 0.00 0.00 0.01 0.00 0.00 0.00 0.00 0.00 0.01 0.00 0.00 0.00 0.00 0.00 0.00 0.00 0.00 0.00 0.00 0.00 0.00 0.00 0.00 0.00 0.00 0.00 0.00 0.00 0.00 0.00 0.00 0.00 0.00
0.00 0.00 0.00 0.00 0.00 0.00 0.00 0.00 0.00 0.00 0.01 0.01 0.01 0.02 0.02 0.01 0.01 0.01 0.01 0.01 0.00 0.00 0.00 0.00 0.00 0.00 0.00 0.00 0.00 0.00 0.00 0.00 0.00 0.00 0.00 0.00 0.00 0.00 0.00 0.00 0.00 0.00 0.00
0.00 0.00 0.00 0.00 0.00 0.00 0.00 0.00 0.00 0.00 0.01 0.01 0.02 0.03 0.03 0.01 0.01 0.00 0.00 0.00 0.01 0.00 0.00 0.00 0.00 0.00 0.00 0.00 0.00 0.00 0.00 0.00 0.00 0.00 0.00 0.00 0.00 0.00 0.00 0.00 0.00 0.00 0.00
0.00 0.00 0.00 0.00 0.00 0.00 0.00 0.00 0.00 0.00 0.01 0.01 0.02 0.03 0.01 0.01 0.01 0.00 0.00 0.00 0.00 0.00 0.00 0.00 0.00 0.00 0.00 0.00 0.00 0.00 0.00 0.00 0.00 0.00 0.00 0.00 0.00 0.00 0.00 0.00 0.00 0.00 0.00
0.00 0.00 0.00 0.00 0.00 0.00 0.00 0.00 0.00 0.00 0.00 0.01 0.02 0.01 0.01 0.00 0.00 0.00 0.00 0.00 0.00 0.00 0.00 0.00 0.00 0.00 0.00 0.00 0.00 0.00 0.00 0.00 0.00 0.00 0.00 0.00 0.00 0.00 0.00 0.00 0.00 0.00 0.00
0.00 0.00 0.00 0.00 0.00 0.00 0.00 0.00 0.00 0.00 0.00 0.00 0.00 0.00 0.00 0.00 0.00 0.00 0.00 0.00 0.00 0.00 0.00 0.00 0.00 0.00 0.00 0.00 0.00 0.00 0.00 0.00 0.00 0.00 0.00 0.00 0.00 0.00 0.00 0.00 0.00 0.00 0.00
0.00 0.00 0.00 0.00 0.00 0.00 0.00 0.00 0.00 0.00 0.00 0.00 0.00 0.00 0.00 0.00 0.00 0.00 0.00 0.00 0.00 0.00 0.00 0.00 0.00 0.00 0.00 0.00 0.00 0.00 0.00 0.00 0.00 0.00 0.00 0.01 0.01 0.01 0.01 0.00 0.00 0.00 0.00
0.00 0.00 0.00 0.00 0.00 0.00 0.00 0.00 0.00 0.00 0.00 0.00 0.00 0.00 0.00 0.00 0.00 0.00 0.00 0.00 0.00 0.00 0.00 0.00 0.00 0.00 0.00 0.00 0.00 0.00 0.00 0.00 0.00 0.00 0.00 0.00 0.01 0.02 0.01 0.00 0.00 0.00 0.00
0.00 0.00 0.00 0.00 0.00 0.00 0.00 0.00 0.00 0.00 0.00 0.00 0.00 0.00 0.00 0.00 0.00 0.00 0.00 0.00 0.00 0.00 0.00 0.00 0.00 0.00 0.00 0.00 0.00 0.01 0.01 0.00 0.00 0.00 0.00 0.00 0.01 0.02 0.01 0.01 0.00 0.00 0.00
0.00 0.00 0.00 0.00 0.00 0.00 0.00 0.00 0.00 0.00 0.00 0.00 0.00 0.00 0.00 0.00 0.00 0.00 0.00 0.00 0.00 0.00 0.00 0.00 0.00 0.00 0.00 0.01 0.01 0.01 0.01 0.01 0.00 0.00 0.01 0.01 0.01 0.03 0.07 0.08 0.04 0.04 0.07
0.00 0.00 0.00 0.00 0.00 0.00 0.00 0.00 0.00 0.00 0.00 0.00 0.00 0.00 0.00 0.00 0.00 0.00 0.00 0.00 0.00 0.00 0.00 0.00 0.00 0.01 0.01 0.01 0.00 0.00 0.00 0.00 0.01 0.00 0.00 0.00 0.00 0.01 0.01 0.01 0.01 0.00 0.00
0.00 0.00 0.00 0.00 0.00 0.00 0.00 0.00 0.00 0.00 0.00 0.00 0.00 0.00 0.00 0.00 0.00 0.00 0.00 0.00 0.00 0.00 0.00 0.00 0.00 0.00 0.00 0.00 0.00 0.00 0.00 0.00 0.00 0.00 0.00 0.00 0.00 0.00 0.00 0.00 0.00 0.00 0.00
0.00 0.00 0.00 0.00 0.00 0.00 0.00 0.00 0.00 0.00 0.00 0.00 0.00 0.00 0.00 0.00 0.00 0.00 0.00 0.00 0.00 0.00 0.00 0.00 0.00 0.00 0.00 0.00 0.00 0.00 0.01 0.01 0.01 0.00 0.00 0.01 0.01 0.01 0.00 0.00 0.00 0.00 0.00
0.00 0.00 0.00 0.00 0.00 0.00 0.00 0.00 0.00 0.00 0.00 0.00 0.00 0.00 0.00 0.00 0.00 0.00 0.00 0.00 0.00 0.00 0.00 0.00 0.00 0.00 0.00 0.00 0.01 0.02 0.03 0.07 0.05 0.02 0.00 0.02 0.02 0.01 0.01 0.03 0.02 0.01 0.00
MSLP
1021.55 1021.33 1021.59 1021.71 1021.78 1022.09 1022.36 1022.57 1022.64 1022.68 1022.80 1022.82 1022.76 1022.76 1022.69 1022.56 1022.53 1022.39 1022.33 1022.11 1022.18 1022.23 1022.45 1022.64 1022.76 1022.89 1022.96 1023.08 1023.06 1022.85 1022.58 1022.36 1022.09 1021.75 1021.36 1020.92 1020.53 1020.29 1020.15 1019.85 1019.62 1019.52 1019.38
1021.75 1021.97 1022.13 1022.20 1022.25 1022.13 1022.73 1023.05 1023.23 1023.27 1023.17 1022.95 1022.78 1022.81 1022.78 1022.55 1022.60 1022.56 1022.38 1022.08 1022.24 1022.52 1022.46 1022.83 1023.03 1023.15 1023.18 1023.24 1023.24 1023.14 1022.89 1022.54 1022.26 1021.98 1021.73 1021.41 1020.92 1020.50 1020.33 1020.05 1019.82 1019.62 1019.56
1021.82 1022.04 1022.26 1022.76 1022.90 1022.68 1023.01 1023.17 1023.14 1023.20 1023.31 1023.05 1023.08 1023.03 1022.82 1022.72 1022.79 1022.72 1022.35 1022.21 1022.06 1022.75 1022.61 1022.79 1022.87 1022.93 1022.93 1023.13 1023.14 1023.15 1023.05 1022.80 1022.53 1022.15 1021.82 1021.61 1021.37 1020.92 1020.49 1020.33 1020.06 1019.82 1019.49
1022.06 1022.46 1022.72 1022.83 1022.77 1023.04 1023.14 1023.29 1023.46 1023.80 1023.70 1023.62 1023.41 1023.36 1023.07 1023.18 1022.97 1022.68 1022.30 1022.32 1022.14 1022.36 1022.51 1022.57 1022.77 1022.76 1022.71 1022.94 1022.91 1022.90 1022.82 1022.81 1022.74 1022.45 1022.10 1021.81 1021.54 1021.35 1020.89 1020.44 1020.28 1019.91 1019.66
1022.21 1022.50 1022.66 1023.02 1023.11 1023.12 1023.19 1023.48 1023.96 1024.08 1024.00 1023.91 1023.66 1023.40 1023.38 1023.41 1023.19 1022.71 1022.55 1022.20 1022.01 1022.05 1022.12 1022.61 1022.57 1022.52 1022.70 1022.81 1022.75 1022.72 1022.56 1022.59 1022.63 1022.54 1022.60 1022.21 1021.85 1021.44 1021.26 1020.92 1020.44 1020.27 1019.83
1022.17 1022.27 1022.77 1023.09 1023.15 1023.39 1023.69 1023.92 1024.15 1024.06 1024.12 1024.08 1023.88 1023.72 1023.57 1023.43 1023.25 1022.98 1022.67 1022.31 1022.36 1022.25 1022.31 1022.44 1022.57 1022.85 1022.91 1022.82 1022.89 1022.64 1022.76 1022.59 1022.55 1022.92 1022.93 1022.71 1022.34 1021.88 1021.29 1021.01 1020.78 1020.33 1019.79
1022.27 1022.63 1022.95 1023.14 1023.37 1023.88 1024.07 1024.02 1024.13 1024.14 1024.22 1024.16 1024.14 1024.15 1023.78 1023.58 1023.50 1023.18 1023.04 1023.04 1022.79 1022.42 1022.51 1022.64 1022.80 1022.89 1022.96 1022.97 1022.92 1022.92 1022.88 1023.16 1023.26 1023.25 1023.10 1022.93 1022.57 1022.00 1021.43 1020.85 1020.46 1020.08 1019.79
1022.51 1022.88 1023.32 1023.47 1023.69 1023.96 1024.10 1024.14 1024.24 1024.36 1024.42 1024.58 1024.87 1024.60 1024.15 1023.89 1023.55 1023.53 1023.33 1023.22 1023.24 1023.15 1023.05 1022.85 1022.81 1022.81 1022.86 1022.97 1023.12 1022.95 1022.79 1023.25 1023.22 1023.16 1023.03 1022.86 1022.52 1021.83 1021.22 1020.81 1020.34 1019.97 1019.51
1022.67 1022.96 1023.21 1023.51 1023.75 1023.93 1024.13 1024.12 1024.23 1024.42 1024.73 1024.86 1024.90 1024.99 1024.74 1024.48 1024.17 1024.14 1023.99 1023.84 1023.70 1023.57 1023.33 1023.13 1022.92 1022.74 1022.61 1022.61 1022.87 1022.81 1022.69 1023.13 1022.86 1022.83 1022.69 1022.64 1022.45 1021.89 1021.29 1020.84 1020.35 1019.95 1019.53
1022.63 1022.90 1023.09 1023.34 1023.56 1023.79 1024.11 1024.13 1024.09 1024.44 1024.67 1024.93 1024.97 1024.90 1024.87 1024.80 1024.62 1024.32 1024.22 1024.23 1024.13 1023.92 1023.59 1023.39 1023.12 1022.90 1022.68 1022.58 1022.45 1022.35 1022.37 1022.44 1022.51 1022.46 1022.49 1022.31 1022.13 1021.94 1021.26 1020.92 1020.44 1019.99 1019.58
1022.43 1022.71 1023.15 1023.66 1023.94 1024.02 1024.04 1024.03 1024.14 1024.18 1024.39 1024.69 1024.89 1024.89 1025.02 1024.72 1024.66 1024.89 1024.66 1024.59 1024.34 1024.14 1023.64 1023.43 1023.28 1023.07 1022.73 1022.54 1022.41 1022.27 1022.22 1022.44 1022.62 1022.45 1022.17 1021.95 1021.76 1021.61 1021.19 1020.65 1020.27 1019.90 1019.57
1022.64 1023.16 1023.55 1023.91 1024.03 1024.12 1024.09 1024.04 1023.85 1023.85 1024.22 1024.58 1024.69 1024.69 1024.75 1024.67 1024.60 1024.68 1024.80 1024.70 1024.56 1024.23 1023.77 1023.56 1023.41 1023.15 1022.82 1022.64 1022.40 1022.29 1022.20 1022.11 1021.95 1021.76 1021.64 1021.48 1021.35 1021.15 1020.82 1020.44 1020.02 1019.60 1019.27
1023.06 1023.56 1023.82 1024.12 1024.24 1024.09 1023.99 1023.94 1023.82 1023.94 1024.24 1024.32 1024.49 1024.63 1024.61 1024.62 1024.52 1024.57 1024.71 1024.68 1024.57 1024.24 1023.97 1023.62 1023.21 1022.89 1022.63 1022.53 1022.16 1021.89 1021.76 1021.64 1021.55 1021.44 1021.27 1021.14 1020.99 1020.90 1020.56 1020.12 1019.87 1019.36 1019.08
1023.12 1023.46 1023.82 1024.06 1024.11 1024.10 1024.08 1023.91 1023.75 1023.80 1023.88 1024.09 1024.15 1024.29 1024.38 1024.39 1024.63 1024.69 1024.48 1024.78 1024.58 1024.26 1023.87 1023.43 1022.99 1022.64 1022.26 1021.90 1021.76 1021.67 1021.69 1021.51 1021.22 1020.97 1020.72 1020.60 1020.44 1020.25 1020.08 1019.87 1019.43 1019.21 1018.72
1023.03 1023.42 1023.76 1023.96 1024.00 1024.08 1024.05 1023.90 1023.84 1023.63 1023.72 1023.79 1023.92 1023.93 1023.91 1023.84 1024.27 1024.19 1024.12 1024.35 1024.60 1024.38 1023.50 1023.00 1022.59 1022.18 1021.76 1021.69 1021.77 1021.63 1021.46 1021.12 1020.81 1020.63 1020.33 1020.02 1019.73 1019.42 1019.21 1019.00 1018.80 1018.50 1018.23
1022.95 1023.32 1023.55 1023.71 1023.87 1023.85 1023.73 1023.67 1023.88 1023.93 1024.01 1023.96 1024.07 1023.93 1023.92 1023.82 1023.94 1023.98 1023.91 1023.96 1024.15 1023.95 1023.03 1022.85 1022.31 1022.04 1021.85 1021.71 1021.52 1021.31 1021.08 1020.67 1020.39 1020.07 1019.72 1019.35 1018.97 1018.59 1018.31 1018.10 1018.00 1017.79 1017.64
1022.78 1023.01 1023.15 1023.48 1023.70 1023.63 1023.40 1023.46 1023.63 1023.79 1023.86 1023.89 1023.87 1023.87 1024.11 1023.76 1023.78 1023.99 1023.82 1023.72 1023.75 1023.79 1023.44 1022.72 1022.42 1022.00 1021.96 1021.85 1021.47 1021.13 1020.76 1020.34 1019.87 1019.34 1018.92 1018.62 1018.31 1017.94 1017.54 1017.19 1017.21 1017.26 1017.15
1022.48 1022.59 1022.75 1023.11 1023.28 1023.19 1023.20 1023.39 1023.57 1023.95 1023.76 1023.80 1023.74 1023.67 1023.76 1023.60 1023.71 1023.88 1023.86 1024.02 1024.15 1023.99 1023.76 1023.07 1022.67 1022.49 1022.25 1021.83 1021.29 1020.88 1020.31 1019.80 1019.31 1018.82 1018.27 1017.82 1017.46 1017.27 1016.90 1016.44 1016.49 1016.66 1016.54
1022.00 1022.12 1022.40 1022.72 1022.83 1022.82 1022.99 1023.28 1023.63 1023.83 1023.82 1023.78 1023.86 1023.57 1023.47 1023.57 1023.88 1023.91 1024.25 1024.41 1024.42 1024.22 1023.96 1023.62 1022.92 1022.61 1022.21 1021.76 1021.13 1020.67 1020.04 1019.43 1018.93 1018.35 1017.64 1017.02 1016.71 1016.53 1016.41 1016.22 1015.98 1015.93 1015.85
1021.77 1022.02 1022.29 1022.48 1022.46 1022.54 1022.97 1023.35 1023.72 1023.94 1023.96 1023.67 1023.74 1023.66 1023.48 1023.39 1023.82 1024.06 1024.30 1024.54 1024.44 1024.44 1024.21 1023.81 1023.23 1022.68 1022.19 1021.57 1021.04 1020.53 1019.90 1019.47 1018.84 1018.00 1017.36 1016.90 1016.58 1016.21 1015.88 1015.50 1015.16 1015.02 1015.18
1021.70 1021.92 1022.08 1022.03 1022.11 1022.38 1023.02 1023.47 1023.83 1023.90 1024.22 1024.10 1023.67 1023.50 1023.37 1023.36 1023.53 1023.90 1024.12 1024.18 1024.33 1024.39 1024.10 1023.70 1023.15 1022.57 1021.94 1021.34 1020.98 1020.64 1020.23 1019.51 1018.64 1018.13 1017.33 1016.87 1016.59 1016.11 1015.76 1015.26 1014.60 1014.32 1014.48
1021.63 1021.74 1021.90 1022.00 1022.04 1022.29 1023.22 1023.66 1023.99 1024.26 1024.31 1024.26 1023.71 1023.52 1023.42 1023.28 1023.30 1023.60 1023.75 1024.07 1024.09 1023.95 1023.69 1023.48 1022.93 1022.38 1021.75 1021.39 1021.09 1020.69 1020.22 1019.56 1018.57 1017.64 1017.25 1016.53 1016.19 1015.66 1015.23 1014.82 1014.12 1013.92 1014.37
1021.34 1021.39 1021.38 1021.49 1021.97 1022.69 1023.28 1023.55 1023.96 1024.00 1024.14 1023.96 1023.74 1023.43 1023.32 1023.24 1023.78 1023.98 1023.97 1024.02 1023.88 1023.39 1023.00 1022.63 1022.15 1021.96 1021.54 1021.23 1020.93 1020.43 1019.93 1019.40 1018.67 1017.58 1016.98 1016.15 1015.84 1015.22 1014.50 1013.80 1013.71 1013.37 1013.53
1021.12 1021.16 1021.31 1021.29 1021.40 1022.29 1022.84 1023.32 1023.79 1024.06 1023.92 1023.52 1023.63 1023.35 1023.25 1023.47 1023.98 1024.15 1024.18 1024.00 1023.69 1023.22 1022.68 1022.13 1021.85 1021.51 1021.13 1020.79 1020.52 1020.10 1019.49 1018.91 1018.11 1017.13 1016.53 1016.01 1015.34 1014.93 1014.31 1013.67 1013.19 1012.97 1012.85
1020.81 1020.79 1020.81 1021.23 1021.41 1022.17 1022.74 1023.02 1023.46 1023.70 1023.63 1023.43 1023.45 1023.07 1023.01 1023.33 1023.81 1023.89 1024.06 1023.93 1023.54 1023.02 1022.32 1021.88 1021.59 1021.06 1020.48 1019.99 1019.49 1019.14 1018.77 1018.45 1017.44 1016.62 1016.00 1015.61 1015.18 1014.73 1013.79 1013.21 1013.01 1012.43 1012.21
1020.69 1020.65 1021.04 1021.19 1021.53 1021.92 1022.78 1022.85 1023.15 1023.32 1023.51 1023.56 1023.27 1023.01 1023.16 1023.46 1023.70 1023.89 1023.89 1023.80 1023.44 1022.95 1022.51 1022.00 1021.47 1020.72 1020.07 1019.49 1018.88 1018.54 1018.38 1017.86 1017.21 1016.39 1015.33 1015.45 1015.03 1014.70 1014.16 1013.55 1012.96 1012.70 1012.00
Thickness
5609 5611 5607 5605 5605 5600 5595 5591 5586 5582 5580 5576 5574 5573 5571 5570 5567 5565 5562 5566 5562 5560 5558 5554 5553 5552 5551 5549 5549 5549 5550 5551 5554 5557 5561 5566 5572 5576 5579 5582 5585 5588 5591
5604 5601 5599 5599 5597 5595 5586 5579 5575 5571 5571 5569 5567 5563 5561 5561 5558 5555 5555 5555 5553 5550 5550 5545 5542 5539 5539 5536 5536 5538 5540 5542 5543 5545 5547 5550 5558 5564 5569 5574 5577 5579 5582
5600 5594 5592 5585 5583 5582 5577 5572 5569 5566 5562 5561 5557 5554 5554 5552 5548 5546 5546 5544 5541 5536 5538 5536 5533 5531 5528 5525 5525 5525 5526 5528 5530 5532 5535 5537 5540 5548 5554 5560 5565 5570 5574
5590 5585 5580 5576 5575 5571 5567 5564 5560 5554 5552 5549 5548 5544 5543 5538 5536 5534 5535 5533 5529 5523 5525 5522 5518 5518 5517 5513 5512 5511 5511 5511 5513 5517 5520 5523 5526 5528 5537 5545 5552 5558 5562
5582 5577 5573 5567 5564 5561 5558 5554 5547 5542 5538 5534 5533 5533 5529 5525 5522 5521 5519 5519 5518 5514 5509 5503 5502 5501 5499 5498 5497 5497 5496 5493 5495 5497 5500 5506 5510 5513 5516 5524 5535 5542 5549
5576 5573 5567 5561 5556 5550 5545 5537 5532 5529 5525 5521 5521 5519 5516 5515 5512 5508 5506 5503 5499 5496 5490 5486 5483 5480 5478 5476 5476 5476 5477 5476 5476 5474 5474 5480 5487 5493 5499 5504 5512 5522 5535
5568 5563 5558 5552 5545 5536 5530 5526 5522 5518 5514 5511 5507 5504 5502 5500 5496 5492 5487 5482 5477 5473 5468 5462 5458 5455 5452 5452 5451 5447 5448 5450 5450 5452 5451 5454 5460 5469 5478 5487 5494 5506 5514
5560 5553 5544 5538 5531 5525 5520 5516 5511 5505 5501 5494 5486 5484 5482 5482 5480 5475 5468 5463 5457 5448 5442 5435 5429 5425 5422 5421 5419 5418 5414 5415 5419 5424 5427 5428 5432 5442 5453 5462 5473 5482 5497
5549 5542 5536 5530 5524 5518 5511 5506 5499 5492 5484 5479 5473 5465 5461 5457 5456 5451 5445 5437 5431 5420 5410 5401 5394 5388 5384 5383 5380 5376 5378 5379 5384 5389 5395 5399 5401 5409 5421 5434 5444 5456 5468
5542 5534 5528 5521 5515 5509 5500 5493 5487 5479 5472 5463 5458 5451 5443 5435 5428 5427 5421 5410 5402 5391 5378 5366 5358 5353 5348 5346 5344 5341 5340 5342 5348 5352 5355 5359 5371 5377 5385 5396 5414 5427 5440
5535 5528 5520 5512 5504 5496 5490 5484 5477 5469 5462 5453 5443 5434 5424 5417 5407 5393 5391 5381 5375 5359 5349 5339 5332 5327 5324 5321 5320 5318 5316 5316 5318 5321 5325 5327 5333 5344 5355 5364 5376 5394 5411
5523 5514 5506 5497 5490 5482 5475 5468 5463 5457 5446 5435 5426 5417 5407 5396 5385 5370 5356 5352 5344 5335 5324 5316 5310 5307 5306 5305 5303 5301 5302 5303 5304 5305 5308 5309 5311 5317 5326 5336 5344 5358 5377
5511 5502 5494 5484 5476 5470 5463 5457 5450 5442 5431 5422 5411 5398 5385 5373 5361 5346 5329 5317 5310 5311 5305 5301 5298 5296 5293 5292 5292 5292 5292 5292 5292 5292 5293 5295 5297 5300 5305 5312 5319 5329 5342
5500 5491 5481 5473 5465 5458 5451 5445 5439 5430 5419 5407 5395 5383 5368 5355 5338 5321 5308 5291 5288 5290 5290 5288 5288 5286 5284 5284 5283 5281 5279 5278 5279 5280 5283 5283 5285 5289 5292 5297 5302 5308 5317
5489 5480 5470 5461 5453 5445 5439 5431 5423 5416 5406 5394 5380 5367 5353 5340 5321 5307 5296 5284 5271 5267 5279 5282 5279 5277 5276 5274 5269 5268 5267 5267 5268 5268 5270 5272 5274 5279 5283 5287 5293 5297 5302
5478 5468 5459 5450 5442 5434 5428 5421 5410 5399 5389 5376 5362 5351 5336 5322 5305 5293 5284 5276 5267 5261 5267 5269 5272 5267 5263 5260 5257 5256 5256 5256 5258 5258 5259 5261 5264 5268 5273 5277 5282 5288 5290
5467 5459 5449 5440 5430 5423 5416 5408 5396 5383 5371 5360 5348 5334 5319 5307 5292 5279 5273 5267 5262 5255 5252 5259 5258 5256 5250 5245 5245 5245 5244 5246 5248 5250 5251 5252 5253 5257 5261 5267 5270 5275 5279
5457 5448 5440 5429 5420 5412 5402 5392 5382 5367 5358 5347 5333 5318 5301 5289 5276 5268 5262 5255 5249 5245 5241 5242 5244 5240 5235 5233 5233 5235 5236 5236 5239 5241 5241 5243 5244 5246 5250 5256 5259 5262 5270
5448 5438 5428 5417 5408 5399 5388 5376 5364 5351 5341 5328 5314 5303 5290 5277 5264 5257 5249 5242 5237 5235 5231 5228 5230 5227 5224 5222 5223 5224 5226 5228 5227 5229 5230 5231 5233 5235 5238 5241 5247 5251 5256
5436 5426 5414 5404 5395 5385 5372 5357 5345 5334 5321 5310 5296 5284 5273 5265 5253 5246 5238 5231 5227 5222 5219 5216 5216 5215 5214 5213 5213 5213 5215 5214 5213 5216 5218 5217 5219 5222 5224 5229 5235 5241 5245
5423 5412 5401 5393 5382 5371 5356 5341 5329 5317 5302 5289 5281 5271 5261 5253 5246 5238 5230 5225 5218 5212 5209 5207 5206 5205 5205 5206 5204 5202 5199 5200 5202 5200 5205 5204 5202 5206 5208 5214 5222 5230 5236
5408 5399 5387 5378 5369 5359 5340 5325 5312 5298 5285 5272 5267 5257 5250 5243 5239 5232 5226 5219 5213 5207 5203 5198 5197 5197 5198 5196 5194 5192 5187 5185 5190 5189 5189 5192 5189 5194 5199 5204 5212 5219 5224
5395 5385 5376 5366 5355 5340 5324 5309 5298 5287 5272 5262 5254 5247 5242 5235 5229 5222 5216 5210 5205 5202 5199 5196 5196 5192 5192 5190 5188 5184 5178 5175 5175 5179 5177 5182 5179 5186 5192 5199 5205 5216 5220
5381 5370 5360 5351 5345 5331 5313 5296 5284 5272 5261 5254 5243 5239 5235 5227 5220 5213 5208 5204 5200 5196 5194 5193 5190 5188 5187 5185 5181 5177 5173 5172 5171 5172 5174 5173 5173 5180 5187 5196 5203 5209 5214
5367 5358 5349 5337 5326 5316 5297 5285 5272 5261 5250 5244 5235 5233 5229 5221 5213 5207 5201 5197 5193 5191 5189 5188 5186 5185 5186 5184 5181 5177 5171 5168 5170 5172 5174 5173 5172 5176 5185 5193 5198 5205 5212
5354 5347 5334 5319 5307 5302 5284 5273 5260 5250 5241 5232 5228 5226 5221 5213 5207 5201 5196 5191 5187 5186 5184 5183 5182 5183 5184 5183 5181 5175 5169 5168 5169 5171 5175 5170 5171 5173 5174 5185 5193 5199 5210